Regional Weather Roundup
Issued by NWS

Home | Current Version | Previous Version | Text Only | Print | Product List | Glossary Off
Versions: 1 2 3 4 5 6 7 8 9 10 11 12 13 14 15 16 17 18 19 20 21 22 23 24 25 26 27 28 29 30 31 32 33 34 35 36 37 38 39 40 41 42 43 44 45 46 47 48 49 50

000
ASUS43 KLMK 150110
RWRKY
KENTUCKY REGIONAL WEATHER ROUNDUP
NATIONAL WEATHER SERVICE LOUISVILLE KY
900 PM EDT SUN SEP 14 2014

NOTE "FAIR" INDICATES FEW OR NO CLOUDS BELOW 12,000 FEET
WITH NO SIGNIFICANT WEATHER AND/OR OBSTRUCTIONS TO VISIBILITY.

KYZ001>023-026-027-061>063-070>075-150200-
WESTERN AND SOUTH CENTRAL KENTUCKY

CITY           SKY/WX    TMP DP  RH WIND       PRES   REMARKS
PADUCAH        CLEAR     61  55  81 CALM      30.18R
HENDERSON      CLEAR     57  50  77 CALM      30.20R
OWENSBORO      CLEAR     65  52  62 NE5       30.20S
HOPKINSVILLE   NOT AVBL
BOWLING GREEN  CLEAR     64  53  67 CALM      30.19R
GLASGOW        CLEAR     60  53  79 CALM      30.18S
$$

KYZ024-025-028>034-038-045-046-053-150200-
NORTH CENTRAL KENTUCKY

CITY           SKY/WX    TMP DP  RH WIND       PRES   REMARKS
LOUISVILLE/SDF CLEAR     63  50  62 W7        30.20R
LOUISVILLE/LOU CLEAR     66  50  56 CALM      30.21R
FORT KNOX      NOT AVBL
$$

KYZ035>037-039>044-047>052-055>060-089>105-150200-
NORTHEAST KENTUCKY

CITY           SKY/WX    TMP DP  RH WIND       PRES   REMARKS
LEXINGTON      CLEAR     63  49  60 NE5       30.20S
COVINGTON      CLEAR     60  48  64 CALM      30.21R
FRANKFORT      CLEAR     58  51  78 CALM      30.20R
$$

KYZ054-064>069-076>088-106>120-150200-
SOUTHEAST KENTUCKY

CITY           SKY/WX    TMP DP  RH WIND       PRES   REMARKS
JACKSON        CLEAR     61  53  75 CALM      30.22R
LONDON         CLEAR     65  57  75 CALM      30.21R
SOMERSET       NOT AVBL
MIDDLESBORO    MOCLDY    65  63  92 CALM      30.21R
MONTICELLO     CLEAR     59  57  92 CALM      30.21R
$$




USA.gov is the U.S. government's official web portal to all federal, state and local government web resources and services.